カタログに戻る

PSLV R/B

運用中SSO
NORAD 38757·ROCKET BODY·🇮🇳 India

打ち上げ Sep 9, 2012 から Satish Dhawan Space Centre

Loading…

次のパス (今後24時間)

TLE

最新Source: Space-Track

元期: Sep 14, 2026, 01:12 UTC

1 38757U 12047C   26257.05039310  .00000474  00000-0  64788-4 0  9999
2 38757  98.2994 105.1075 0006649  76.5969 283.5984 14.83448411756059

AllMySatでPSLV R/Bをリアルタイム追跡

Download on the App Store